This is the latest recevied weather packets stored in our database for station/object DL9CN-10. If no packets are shown the sender has not sent any weather packets the latest 10 day(s).
| Time | Temp. | Humidity | Pressure | Rain* | Wind** | Luminosity | Snow |
|---|---|---|---|---|---|---|---|
| 1777352856 | 14.44° C | 36% | 1017.7 hPa | - | - | - | - |
| 1777351956 | 14.44° C | 36% | 1017.6 hPa | - | - | - | - |
| 1777351055 | 15° C | 36% | 1017.7 hPa | - | - | - | - |
| 1777350282 | 15° C | 36% | 1017.6 hPa | - | - | - | - |
| 1777349382 | 15° C | 35% | 1017.5 hPa | - | - | - | - |
| 1777348482 | 15.56° C | 36% | 1017.6 hPa | - | - | - | - |
| 1777345658 | 16.11° C | 35% | 1017.5 hPa | - | - | - | - |
| 1777344758 | 16.11° C | 35% | 1017.5 hPa | - | - | - | - |
| 1777343858 | 16.11° C | 35% | 1017.6 hPa | - | - | - | - |
| 1777342958 | 16.11° C | 35% | 1017.6 hPa | - | - | - | - |
| 1777342058 | 16.67° C | 35% | 1017.6 hPa | - | - | - | - |
| 1777341158 | 16.67° C | 35% | 1017.7 hPa | - | - | - | - |
| 1777340258 | 16.67° C | 34% | 1017.8 hPa | - | - | - | - |
| 1777339357 | 17.22° C | 34% | 1017.7 hPa | - | - | - | - |
| 1777338457 | 17.22° C | 34% | 1017.8 hPa | - | - | - | - |
| 1777337557 | 17.22° C | 34% | 1017.8 hPa | - | - | - | - |
| 1777336657 | 17.22° C | 34% | 1017.8 hPa | - | - | - | - |
| 1777335757 | 17.78° C | 33% | 1017.9 hPa | - | - | - | - |
| 1777334857 | 17.78° C | 33% | 1018.1 hPa | - | - | - | - |
| 1777333957 | 18.33° C | 33% | 1018.2 hPa | - | - | - | - |
| 1777333057 | 18.33° C | 33% | 1018.2 hPa | - | - | - | - |
| 1777332156 | 18.33° C | 33% | 1018.3 hPa | - | - | - | - |
| 1777331256 | 18.89° C | 33% | 1018.4 hPa | - | - | - | - |
| 1777330355 | 18.89° C | 33% | 1018.4 hPa | - | - | - | - |
| 1777329455 | 19.44° C | 33% | 1018.4 hPa | - | - | - | - |
* Rain since midnight (hover to see other rain measurements)
** Current wind speed in m/s (hover to see current wind gust speed)